This is the latest recevied weather packets stored in our database for station/object KD7ECD. If no packets are shown the sender has not sent any weather packets the latest 10 day(s).
| Time | Temp. | Humidity | Pressure | Rain* | Wind** | Luminosity | Snow |
|---|---|---|---|---|---|---|---|
| 1777414156 | 21.11° C | 49% | 1020.6 hPa | 0 mm | - | 573 W/m² | - |
| 1777413554 | 20.56° C | 46% | 1020.6 hPa | 0 mm | - | 651 W/m² | - |
| 1777412951 | 21.11° C | 46% | 1020.8 hPa | 0 mm | - | 692 W/m² | - |
| 1777412348 | 20.56° C | 50% | 1020.8 hPa | 0 mm | - | 695 W/m² | - |
| 1777411743 | 20.56° C | 47% | 1021 hPa | 0 mm | - | 660 W/m² | - |
| 1777411138 | 20° C | 49% | 1021 hPa | 0 mm | - | 702 W/m² | - |
| 1777410538 | 20.56° C | 49% | 1021.2 hPa | 0 mm | - | 724 W/m² | - |
| 1777409938 | 20° C | 49% | 1021.5 hPa | 0 mm | - | 695 W/m² | - |
| 1777409335 | 20° C | 51% | 1021.5 hPa | 0 mm | - | 753 W/m² | - |
| 1777408734 | 20° C | 48% | 1021.6 hPa | 0 mm | - | 802 W/m² | - |
| 1777408130 | 19.44° C | 51% | 1021.7 hPa | 0 mm | - | 743 W/m² | - |
| 1777407529 | 18.89° C | 51% | 1021.7 hPa | 0 mm | - | 589 W/m² | - |
| 1777406923 | 19.44° C | 50% | 1021.9 hPa | 0 mm | - | 835 W/m² | - |
| 1777406321 | 19.44° C | 51% | 1021.9 hPa | 0 mm | - | 731 W/m² | - |
| 1777405717 | 18.89° C | 52% | 1021.9 hPa | 0 mm | - | 896 W/m² | - |
| 1777405116 | 18.89° C | 53% | 1022 hPa | 0 mm | - | 916 W/m² | - |
| 1777404511 | 17.78° C | 55% | 1022.3 hPa | 0 mm | - | 924 W/m² | - |
| 1777403909 | 17.78° C | 53% | 1022.4 hPa | 0 mm | - | 880 W/m² | - |
| 1777403309 | 18.33° C | 55% | 1022.5 hPa | 0 mm | - | 910 W/m² | - |
| 1777402705 | 18.33° C | 59% | 1022.3 hPa | 0 mm | - | 927 W/m² | - |
| 1777402104 | 17.22° C | 62% | 1022.7 hPa | 0 mm | - | 929 W/m² | - |
| 1777401499 | 17.22° C | 63% | 1022.6 hPa | 0 mm | - | 903 W/m² | - |
| 1777400897 | 16.67° C | 64% | 1022.8 hPa | 0 mm | - | 921 W/m² | - |
| 1777400297 | 16.67° C | 66% | 1023 hPa | 0 mm | - | 922 W/m² | - |
| 1777399695 | 16.11° C | 67% | 1022.9 hPa | 0 mm | - | 945 W/m² | - |
* Rain latest hour (hover to see other rain measurements)
** Current wind speed in m/s (hover to see current wind gust speed)